Погода в Чингирлау

Казахстан     51°06′06″N   54°05′06″E
темп.,
°C
ветер,
м/с
пор.,
м/с
влажн.,
%
обл.,
%
осадки,
мм/ч
давл.,
гПа
погр.,
м
5 августа, чт
чт523:00+31ююз592092 0.0 1009122
02:00+29з342387 0.0 100943
05:00+26сз2229100 0.0 101016
08:00+27ссв51145100 0.0 1011476
11:00+33ссв562987 0.0 10101236
14:00+36ссз3323100 0.0 10092175
17:00+35зсз7526100 0.0 10082123
20:00+31зсз793394 0.2 1009617
6 августа, пт
пт623:00+27сз71333100 0.3 1009385
02:00+25с61243100 0.0 1010512
05:00+22ссз5946100 0.0 1011344
08:00+22с71048100 0.0 1012407
11:00+28с663719 0.0 10121398
14:00+31с562520 0.0 10122594
17:00+32с55205 0.0 10112700
20:00+30ссв582267 0.0 1012389
7 августа, сб
сб723:00+24ссв47315 0.0 1013121
02:00+21св47375 0.0 1014137
05:00+19всв34495 0.0 101551
08:00+22св354698 0.0 1016227
11:00+28всв56285 0.0 10161539
14:00+31св55196 0.0 10152035
17:00+32св45175 0.0 10152299
20:00+30св46215 0.0 1015164
8 августа, вс
вс823:00+25всв51125100 0.0 1016198
02:00+22в411324 0.0 1017193
05:00+20всв4738100 0.0 1018123
08:00+23в5835100 0.0 1019274
11:00+30вюв552463 0.0 1018827
14:00+34юв44189 0.0 10172177
17:00+35юв4517100 0.0 10162479
20:00+32вюв452178 0.0 101694
9 августа, пн
пн923:00+27юв5827100 0.0 1017124
02:00+26юв4632100 0.0 101791
05:00+26юв4835100 0.0 1017169
08:00+28ююв4113336 0.0 1017485
11:00+34ю6720100 0.0 10161116
14:00+37ю5615100 0.0 10152791
17:00+37ю4614100 0.0 10142773
20:00+34ю471698 0.0 1013136